User: anonymous   Login
Location: Oshawa
(43.9000°N, 78.8670°W)
Time: 05:22:50
(UTC-05:00)
Language:

Cosmos 1500 - Orbit

View from above orbital plane
View from above orbital plane
View from above satellite
View from above satellite

Ground track
Ground track

The orbit data is extracted from the following two-line orbital elements,

1 14372U 83099A   15025.48946591  .00003688  00000-0  20433-3 0  7409
2 14372 082.5187 125.0753 0016842 234.3858 252.0651 15.13397881705422
Epoch (UTC): 25 January 2015 11:44:49
Eccentricity: 0.0016842
inclination: 82.5187°
perigee height: 514 km
apogee height: 537 km
right ascension of ascending node: 125.0753°
argument of perigee: 234.3858°
revolutions per day: 15.13397881
mean anomaly at epoch: 252.0651°
orbit number at epoch: 70542

The dashed part of the orbit path shows where the satellite is in the earth's shadow,  

DLR